Weather History for KPUW - May, 2013

Change the Weather History Date:

Saturday, May 18, 2013

  Actual Average Record
Temperature  
Mean Temperature 53 °F 54 °F  
Max Temperature 58 °F 66 °F 92 °F (2006)
Min Temperature 47 °F 42 °F 27 °F (1966)
Degree Days  
Heating Degree Days 12 11  
Month to date heating degree days 131 239  
Since 1 July heating degree days 5898 6266  
Cooling Degree Days 0 0  
Month to date cooling degree days 12 0  
Year to date cooling degree days 12 0  
Growing Degree Days 2 (Base 50)    
Moisture  
Dew Point 40 °F    
Average Humidity 67    
Maximum Humidity 86    
Minimum Humidity 47    
Precipitation  
Precipitation 0.06 in 0.06 in 0.86 in (1991)
Month to date precipitation 0.10 0.98  
Year to date precipitation 5.78 7.93  
Sea Level Pressure  
Sea Level Pressure 30.08 in    
Wind  
Wind Speed 5 mph (WSW)    
Max Wind Speed 16 mph    
Max Gust Speed 21 mph    
Visibility 10 miles    
Events Rain    
T = Trace of Precipitation, MM = Missing Value Source: NWS Daily Summary

Daily Weather History Graph

Daily Weather History Graph

Search for Another Location

Airport or City:

Trip Planner

Search our weather history database for the weather conditions in past years. The results will help you decide how hot, cold, wet, or windy it might be!

Date:

Astronomy

May. 18, 2013 Rise Set
Actual Time 5:10 AM PDT 8:20 PM PDT
Civil Twilight 4:33 AM PDT 8:56 PM PDT
Nautical Twilight 3:46 AM PDT 9:44 PM PDT
Astronomical Twilight 2:48 AM PDT 10:43 PM PDT
Moon 1:03 PM PDT (5/18) 1:31 AM PDT (5/18)
Length of Visible Light 16h 23m
Length of Day
15h 10m
First Quarter, 56% of the Moon is Illuminated
May 18
First Quarter
May 24
Full
May 31
Last Quarter
Jun 8
New
Jun 16
First Quarter

Hourly Weather History & Observations

Time (PDT) Temp. Dew Point Humidity Pressure Visibility Wind Dir Wind Speed Gust Speed Precip Events Conditions
12:53 AM 52.0 °F 37.9 °F 59% 29.99 in 10.0 mi WSW 3.5 mph - N/A   Overcast
1:53 AM 52.0 °F 37.9 °F 59% 29.99 in 10.0 mi WSW 16.1 mph 20.7 mph N/A   Overcast
2:53 AM 51.1 °F 37.9 °F 61% 30.00 in 10.0 mi WSW 12.7 mph - N/A   Overcast
3:53 AM 48.9 °F 39.9 °F 71% 30.01 in 10.0 mi WSW 8.1 mph - 0.00 in Rain Light Rain
4:53 AM 48.0 °F 42.1 °F 80% 30.03 in 10.0 mi Calm Calm - 0.01 in Rain Light Rain
5:53 AM 46.9 °F 42.1 °F 83% 30.05 in 5.0 mi Calm Calm - 0.03 in Rain Light Rain
6:53 AM 46.9 °F 42.1 °F 83% 30.07 in 10.0 mi Calm Calm - 0.01 in Rain Light Rain
7:53 AM 48.0 °F 41.0 °F 77% 30.08 in 10.0 mi West 3.5 mph - 0.01 in   Overcast
8:53 AM 48.0 °F 41.0 °F 77% 30.09 in 10.0 mi West 4.6 mph - N/A   Overcast
9:53 AM 50.0 °F 42.1 °F 74% 30.10 in 10.0 mi West 6.9 mph - N/A   Overcast
10:53 AM 51.1 °F 41.0 °F 68% 30.10 in 10.0 mi West 4.6 mph - N/A   Overcast
12:53 PM 55.9 °F 39.9 °F 55% 30.09 in 10.0 mi WNW 6.9 mph - N/A   Overcast
1:53 PM 55.9 °F 37.9 °F 51% 30.09 in 10.0 mi WSW 11.5 mph - N/A   Overcast
2:53 PM 57.0 °F 39.0 °F 51% 30.09 in 10.0 mi West 6.9 mph - N/A   Overcast
3:53 PM 57.0 °F 37.9 °F 49% 30.10 in 10.0 mi WSW 6.9 mph - N/A   Overcast
4:53 PM 57.0 °F 39.0 °F 51% 30.10 in 10.0 mi West 3.5 mph - N/A   Overcast
5:53 PM 57.0 °F 37.9 °F 49% 30.11 in 10.0 mi Calm Calm - N/A   Overcast
6:53 PM 57.0 °F 37.0 °F 47% 30.12 in 10.0 mi SW 11.5 mph - N/A   Overcast
7:53 PM 54.0 °F 37.0 °F 53% 30.14 in 10.0 mi WSW 11.5 mph - N/A   Mostly Cloudy
8:53 PM 50.0 °F 39.0 °F 66% 30.17 in 10.0 mi West 4.6 mph - N/A   Overcast
10:53 PM 48.9 °F 42.1 °F 77% 30.17 in 10.0 mi Calm Calm - N/A   Overcast
11:53 PM 48.9 °F 41.0 °F 74% 30.18 in 10.0 mi Calm Calm - N/A   Overcast